Regional Weather Roundup
Issued by NWS Jackson, KY

Home | Current Version | Previous Version | Graphics & Text | Print | Product List | Glossary On
Versions: 1 2 3 4 5 6 7 8 9 10 11 12 13 14 15 16 17 18 19 20 21 22 23 24 25 26 27 28 29 30 31 32 33 34 35 36 37 38 39 40 41 42 43 44 45 46 47 48 49 50
000
ASUS43 KJKL 311011
RWRJKL

EAST KENTUCKY HOURLY WEATHER ROUNDUP
NATIONAL WEATHER SERVICE JACKSON KY
600 AM EDT THU JUL 31 2014

NOTE: "FAIR" INDICATES FEW OR NO CLOUDS BELOW 12,000 FEET WITH
NO SIGNIFICANT WEATHER AND/OR OBSTRUCTIONS TO VISIBILITY.

* THESE REPORTS ARE NOT UNDER NWS QUALITY CONTROL AND MAY NOT
  REPORT WEATHER SUCH AS PRECIPITATION AND FOG.

KYZ079-080-083-085-087-088-110-112-115-119-120-311100
...EASTERN KENTUCKY...

CITY           SKY/WX    TMP DP  RH WIND       PRES   REMARKS
JACKSON        PTCLDY    60  57  89 CALM      30.12R
LONDON         PTCLDY    60  56  86 CALM      30.13R
SOMERSET*      CLOUDY    59  59 100 CALM      30.12S FOG
MONTICELLO*    FOG       55  55 100 CALM      30.12S VSB 3/4
WILLIAMSBURG*  CLOUDY    57  57 100 CALM      30.13
MIDDLESBORO*   FOG       57  57 100 CALM      30.14S VSB 1/2
HARLAN APT*    CLOUDY    57  55  94 MISG      30.15R VSB<1/4
BLACK MTN*       N/A     55  52  88 CALM        N/A
PIKEVILLE APT* CLEAR     59  57  94 S6        30.12S
BIG SANDY*     SUNNY     60  58  94 CALM      30.12R
MOREHEAD APT*    N/A     59  57  94 S3        30.12R
$$

KYZ035-036-041-042-044-050-067-078-099-311100
...CENTRAL KENTUCKY...

CITY           SKY/WX    TMP DP  RH WIND       PRES   REMARKS
MT STERLING*   CLEAR     55  55 100 SW6       30.12R
FLEMING/MASON* CLEAR     59  57  94 S6        30.10S
DANVILLE*      CLEAR     55  55 100 CALM      30.12R
RICHMOND*      CLEAR     59  57  94 CALM      30.10S
LEXINGTON      CLEAR     61  57  87 S3        30.10R
FRANKFORT      CLEAR     58  56  93 CALM      30.09R
$$

KYZ091>093-OHZ055-061-077-WVZ005-015-034-035-042-311100
...SOUTHERN OHIO/WEST VIRGINIA...

CITY           SKY/WX    TMP DP  RH WIND       PRES   REMARKS
COVINGTON      CLEAR     63  59  87 SW5       30.08R
COLUMBUS       PTCLDY    62  58  86 S5        30.07R
DAYTON         PTCLDY    63  59  87 SW5       30.08R
WILMINGTON     CLEAR     58  56  93 SW5       30.08R FOG
HUNTINGTON     CLEAR     57  57 100 S5        30.09R
CHARLESTON     MOCLDY    60  60 100 CALM      30.09S
PINEVILLE*     FOG       57  57 100 MISG      30.20S VSB 1/2
BECKLEY        CLEAR     56  52  86 CALM      30.17R
BLUEFIELD      PTCLDY    59  52  77 SW3       30.18S
$$

VAZ002-007-008-TNZ017-027-036-066-071-311100
...SOUTHWEST VIRGINIA/EAST TENNESSEE...

CITY           SKY/WX    TMP DP  RH WIND       PRES   REMARKS
WISE*          PTCLDY    59  55  88 CALM      30.18S
JONESVILLE*      N/A     55  55 100 CALM      30.15S
ABINGDON*      PTCLDY    58  56  91 E3        30.16R
BRISTOL        MOCLDY    57  54  89 CALM      30.14R FOG
KNOXVILLE      CLOUDY    60  58  92 NE3       30.09S
OAK RIDGE      FOG       61  60  97 CALM      30.11S VSB 1/4
CROSSVILLE     MOCLDY    64  56  75 CALM      30.13F
NASHVILLE      MOCLDY    62  59  90 CALM      30.09S
$$

...KEY TO REMARKS...
VSB - VISIBILITY IN MILES
WCI - WIND CHILL INDEX
HX  - HEAT INDEX

$$



USA.gov is the U.S. government's official web portal to all federal, state and local government web resources and services.